TimeMST,TemperatureF,Dew PointF,Humidity,Sea Level PressureIn,VisibilityMPH,Wind Direction,Wind SpeedMPH,Gust SpeedMPH,PrecipitationIn,Events,Conditions,WindDirDegrees,DateUTC
12:56 AM,35.1,24.1,64,29.63,10.0,WSW,27.6,35.7,N/A,,Clear,250,2012-12-03 07:56:00
1:56 AM,34.0,25.0,70,29.65,10.0,WSW,26.5,32.2,N/A,,Clear,250,2012-12-03 08:56:00
2:56 AM,34.0,25.0,70,29.70,10.0,WSW,21.9,-,N/A,,Clear,250,2012-12-03 09:56:00
3:56 AM,35.1,26.1,70,29.73,10.0,WSW,23.0,27.6,N/A,,Clear,250,2012-12-03 10:56:00
4:56 AM,34.0,26.1,73,29.75,10.0,West,25.3,-,N/A,,Clear,260,2012-12-03 11:56:00
5:56 AM,32.0,25.0,75,29.78,10.0,WSW,12.7,-,N/A,,Clear,250,2012-12-03 12:56:00
6:56 AM,33.8,26.6,75,29.73,10.0,WSW,16.1,-,N/A,,Clear,250,2012-12-03 13:56:00
7:56 AM,34.0,25.0,70,29.82,10.0,WSW,20.7,-,N/A,,Clear,250,2012-12-03 14:56:00
8:56 AM,37.0,27.0,67,29.81,10.0,WSW,20.7,29.9,N/A,,Clear,250,2012-12-03 15:56:00
9:56 AM,39.9,27.0,60,29.80,10.0,WSW,34.5,44.9,N/A,,Clear,250,2012-12-03 16:56:00
10:56 AM,42.1,26.1,53,29.79,10.0,WSW,40.3,55.2,N/A,,Clear,250,2012-12-03 17:56:00
11:56 AM,42.1,27.0,55,29.81,10.0,WSW,39.1,47.2,N/A,,Clear,250,2012-12-03 18:56:00
12:56 PM,41.0,27.0,57,29.84,10.0,WSW,33.4,43.7,N/A,,Clear,250,2012-12-03 19:56:00
1:56 PM,42.1,25.0,51,29.86,10.0,West,42.6,56.4,N/A,,Clear,260,2012-12-03 20:56:00
2:56 PM,41.0,26.1,55,29.88,10.0,WSW,38.0,48.3,N/A,,Clear,250,2012-12-03 21:56:00
3:56 PM,37.9,27.0,65,29.92,10.0,West,26.5,34.5,N/A,,Clear,260,2012-12-03 22:56:00
4:56 PM,35.1,27.0,72,29.96,10.0,WSW,24.2,-,N/A,,Clear,250,2012-12-03 23:56:00
5:56 PM,34.0,27.0,75,29.97,10.0,WSW,18.4,-,N/A,,Clear,250,2012-12-04 00:56:00
6:56 PM,36.0,27.0,70,29.99,10.0,West,19.6,-,N/A,,Clear,260,2012-12-04 01:56:00
7:56 PM,36.0,25.0,64,30.01,10.0,West,17.3,-,N/A,,Clear,260,2012-12-04 02:56:00
8:56 PM,33.1,23.0,66,30.02,10.0,West,9.2,-,N/A,,Clear,280,2012-12-04 03:56:00
9:56 PM,37.9,27.0,65,30.01,10.0,West,20.7,-,N/A,,Clear,270,2012-12-04 04:56:00
10:56 PM,37.0,27.0,67,30.02,10.0,West,18.4,23.0,N/A,,Clear,270,2012-12-04 05:56:00
11:56 PM,37.0,25.0,62,30.04,10.0,West,18.4,-,N/A,,Clear,260,2012-12-04 06:56:00